SCP
0 0 0 0 0 0 0 0 0 0 0 0 0 0 0 0 0 0 0 0 0 0 0 0 0 0 0 0 0 0 0 0 -0 0 0 0 0 0 0 0 0 0 0 0
0 0 0 0 0 0 0 0 0 0 0 0 0 0 0 0 0 0 0 0 0 0 0 0 0 0 0 0 0 0 0 0 -0 0 0 0 0 0 0 0 0 0 0 -0
0 0 0 0 0 0 0 0 0 0 0 0 0 0 0 0 0 0 0 0 0 0 0 0 0 0 0 0 0 0 0 0 0 0 0 0 0 0 0 0 0 0 -0 -0
0 0 0 0 0 0 0 0 0 0 0 0 0 0 0 0 0 0 0 0 0 0 0 0 0 0 0 0 0 0 0 0 0 0 0 0 -0 0 -0 -0 -0 -0 -0 -0
0 0 0 0 0 0 0 0 0 0 0 0 0 0 0 0 0 0 0 0 0 0 0 0 0 0 0 0 0 0 0 0 0 0 0 0 0 0 -0 -0 0 -0 0 -0
0 0 0 0 0 0 0 0 0 0 0 0 0 0 0 0 0 0 0 0 0 0 0 0 0 0 0 0 0 0 0 0 0 -0 0 0 0 0 0 0 0 0 0 -0
-0 -0 0 0 0 0 0 0 0 0 0 0 0 0 0 0 0 0 0 0 0 0 0 0 0 0 0 0 0 0 0 0 0 0 0 0 0 0 0 0 0 0 0 0
-0 -0 0 0 0 0 0 0 0 0 0 0 0 0 0 0 0 0 0 0 0 0 0 0 0 0 0 0 0 -0 0 0 -0 -0 0 0 0 0 0 0 -0 0 0 0
-0 -0 -0 0 0 0 0 0 0 0 0 0 0 0 0 0 0 0 0 0 0 0 0 0 0 0 0 0 0 0 -0 -0 0 0 0 0 0 0 0 0 0 0 0 0
0 0 -0 0 0 0 0 0 0 0 0 0 0 0 0 0 0 0 0 0 0 0 0 0 0 0 0 0 0 -0 0 0 0 0 0 0 0 0 0 0 0 0 0 0
0 0 0 -0 0 0 0 0 0 0 0 0 0 0 0 0 0 0 0 0 0 0 0 0 0 0 0 0 0 0 -0 -0 -0 0 0 0 -0 0 0 0 0 0 0 0
0 0 0 0 0 0 0 0 0 0 0 0 0 0 0 0 0 0 0 0 0 0 0 0 0 0 0 0 0 0 0 -0 0 -0 0 0 0 0 0 0 0 0 0 0
0 0 0 0 0 0 0 0 0 0 0 0 0 0 0 0 0 0 0 0 0 0 0 0 0 0 0 0 0 0 0 0 0 0 -0 0 0 0 0 0 0 0 0 0
0 0 0 0 0 0 0 0 0 0 0 0 0 0 0 0 0 0 0 0 0 0 0 0 0 0 0 0 0 0 0 0 0 0 0 -0 0 -0 -0 0 -0 0 0 -0
0 0 0 0 0 0 0 0 0 0 0 0 0 0 0 0 0 0 0 0 0 0 0 0 0 0 0 0 0 0 0 0 0 0 0 -0 0 0 -0 -0 0 0 0 0
0 0 0 0 0 0 0 0 0 0 0 0 0 0 0 0 0 0 0 0 0 0 0 0 0 0 0 0 0 0 0 0 -0 0 -0 0 -0 0 0 -0 -0 -0 -0 -0
0 0 0 0 0 0 0 0 0 0 0 0 0 0 0 0 0 0 0 0 0 0 0 0 0 0 0 0 0 0 0 0 0 -0 -0 -0 0 -0 -0 0 0 -0 -0 -0
0 0 0 0 0 0 0 0 0 0 0 0 0 0 0 0 0 0 0 0 0 0 0 0 0 0 0 0 0 0 0 0 0 0 0 -0 0 0 0 0 0 0 -0 -0
0 0 0 0 0 0 0 0 0 0 0 0 0 0 0 0 0 0 0 0 0 0 0 0 0 0 0 0 0 0 0 0 0 0 0 0 0 0 0 0 0 -0 0 -0
0 0 0 0 0 0 0 0 0 0 0 0 0 0 0 0 0 0 0 0 0 0 0 0 0 0 0 0 0 0 0 0 0 0 0 0 0 0 0 0 0 0 0 0
0 0 0 0 0 0 0 0 0 0 0 0 0 0 0 0 0 0 0 0 0 0 0 0 0 0 0 0 0 0 0 0 -0 -0 -0 -0 -0 0 0 0 0 0 0 0
0 0 0 0 0 0 0 0 0 0 0 0 0 0 0 0 0 0 0 0 0 0 0 0 0 0 0 0 0 0 0 0 -0 -0 -0 -0 -0 -0 -0 -0 -0 -0 0 0
0 0 0 0 0 0 0 0 0 0 0 0 0 0 0 0 0 0 0 0 0 0 0 0 0 0 0 0 0 0 -0 -0 -0 -0 -0 -0 -0 -0 -0 -0 -0 -0 -0 -0
0 0 0 0 0 0 0 0 0 0 0 0 0 0 0 0 0 0 0 0 0 0 0 0 0 0 0 0 0 -0 -0 -0 -0 -0 -0 -0 -0 -0 -0 -0 -0 -0 -0 -0
0 0 0 0 0 0 0 0 0 0 0 0 0 0 0 0 0 0 0 0 0 0 0 0 0 0 0 -0 -0 -0 -0 -0 -0 -0 -0 -0 -0 -0 -0 -0 -0 -0 -0 -0
0 0 0 0 0 0 0 0 0 0 0 0 0 0 0 0 0 0 0 0 0 0 0 0 0 0 -0 -0 -0 -0 -0 -0 -0 -0 -0 -0 -0 -0 -0 -0 -0 -0 -0 -0
0 0 0 0 0 0 0 0 0 0 0 0 0 0 0 0 0 0 0 0 0 0 0 0 -0 -0 -0 -0 -0 -0 -0 -0 -0 -0 -0 -0 -0 -0 -0 -0 -0 -0 -0 -0
Wind_Speed_500mb
11 17 15 9 6 12 15 9 4 7 23 5 4 6 7 6 5 2 1 1 1 6 3 4 5 7 5 5 4 4 4 6 7 7 5 3 3 8 6 8 8 1 6 14
17 17 10 2 10 13 19 9 9 5 21 7 6 4 6 5 6 4 4 5 6 3 4 4 7 5 7 10 5 3 5 5 6 4 4 2 5 6 6 7 5 10 8 12
22 17 12 6 7 26 24 9 5 9 11 6 11 6 8 8 3 2 6 3 6 5 3 4 7 5 2 9 6 8 4 6 9 5 2 4 2 4 6 7 6 7 15 19
27 18 14 11 13 30 23 13 9 11 5 10 7 4 2 12 7 7 7 3 9 9 2 4 8 6 6 5 5 5 4 7 7 16 21 11 11 16 15 19 13 14 9 14
27 24 20 11 17 26 27 9 7 15 4 9 10 11 8 9 6 11 5 7 5 11 9 9 5 5 5 6 3 6 4 6 3 9 6 4 13 17 23 27 6 19 19 47
31 29 25 15 22 20 27 23 13 10 8 9 6 7 9 10 14 9 4 13 4 7 7 3 9 10 11 6 4 5 5 4 5 8 3 12 12 13 13 8 5 15 12 22
24 29 27 20 30 22 35 21 14 9 6 6 10 5 10 14 11 8 3 8 7 3 5 15 11 9 10 10 11 15 2 1 3 8 12 2 8 0 5 8 11 21 19 17
23 27 26 20 30 23 27 26 28 13 4 7 6 10 9 14 14 9 8 7 7 5 2 3 5 4 9 7 6 5 12 2 4 5 5 15 5 5 10 10 10 14 16 23
30 23 23 19 30 24 26 19 20 11 9 9 12 9 14 7 6 5 6 8 3 6 2 3 3 6 2 6 11 3 4 2 2 1 3 5 10 8 10 7 8 8 13 11
41 27 21 19 24 28 22 16 17 10 6 9 12 6 10 14 5 5 8 11 7 7 4 4 6 6 3 3 7 7 1 1 6 6 6 14 9 8 10 10 11 9 10 17
54 41 26 21 20 25 30 25 20 19 6 12 13 16 10 13 10 6 12 7 3 3 5 4 3 2 5 3 6 9 10 10 6 4 4 9 13 3 6 11 38 47 42 40
43 48 38 28 21 20 22 31 28 26 14 6 14 16 14 14 14 9 17 2 7 6 4 3 1 1 0 2 5 3 4 9 5 12 9 8 20 27 49 51 61 50 49 44
50 56 42 36 27 21 18 18 30 32 18 12 21 18 23 25 23 19 9 5 9 7 4 3 3 5 1 4 8 4 5 5 4 5 6 14 42 38 28 44 51 60 60 60
53 52 47 45 37 28 17 14 17 24 13 8 5 19 22 27 37 36 31 19 8 4 1 5 4 2 7 3 5 5 7 7 6 11 19 41 14 54 63 81 65 56 47 57
41 48 48 46 45 28 23 17 14 19 7 3 7 10 13 17 16 20 29 31 27 16 5 3 5 4 3 4 3 6 6 7 6 7 46 20 56 71 66 51 63 68 69 73
53 46 40 32 29 44 37 13 27 25 19 2 2 5 2 4 7 8 18 19 17 15 11 6 4 4 6 3 5 5 41 47 36 19 55 56 65 50 44 61 62 55 52 52
55 45 35 31 29 38 31 10 7 32 25 4 3 2 6 9 12 8 11 19 8 8 4 4 7 5 9 3 5 24 44 47 37 20 54 25 20 41 60 50 53 50 48 42
51 39 31 33 31 25 29 29 6 29 24 8 5 5 3 10 7 7 9 9 10 8 2 3 5 3 3 6 12 31 36 43 17 52 45 35 45 53 52 51 53 56 56 56
48 38 33 34 28 21 29 26 21 33 8 11 6 9 7 16 7 8 6 7 3 4 2 4 5 2 7 5 14 26 31 32 47 55 50 55 58 64 66 65 61 61 65 63
52 44 15 12 16 16 46 28 26 17 11 9 6 11 4 16 11 6 7 3 3 1 7 5 4 5 9 10 11 17 23 28 37 57 71 73 76 72 72 66 61 58 61 67
38 14 10 27 43 39 14 12 10 7 3 12 7 24 10 21 7 7 5 6 4 3 7 7 3 4 9 6 6 15 23 28 31 35 40 43 49 61 67 68 61 58 57 59
27 23 36 37 14 6 6 5 2 4 10 13 14 14 7 14 10 10 8 5 3 8 4 5 5 7 24 4 8 18 27 36 42 46 51 51 50 51 55 56 59 58 54 54
34 15 13 10 5 4 12 12 6 2 11 19 15 7 13 10 6 11 6 7 8 7 3 7 7 16 24 7 9 18 29 38 45 51 57 61 59 53 54 56 54 54 52 50
9 11 6 8 2 7 8 9 9 12 12 35 32 14 7 7 5 4 9 3 6 4 1 10 6 25 19 15 10 18 27 37 46 51 59 67 71 65 54 51 50 52 50 47
7 8 8 7 6 6 4 15 3 7 21 47 21 13 6 3 5 4 7 3 7 10 9 6 38 7 1 8 16 22 28 39 50 58 64 69 74 71 59 52 48 46 41 38
6 5 7 5 5 2 9 17 11 20 41 22 7 6 7 3 5 7 13 12 11 7 7 27 21 8 13 17 22 29 36 44 53 58 63 66 69 69 62 51 44 40 37 33
8 6 9 14 7 17 13 15 17 36 32 4 8 8 12 4 4 5 8 10 7 6 14 12 17 20 24 26 35 47 51 56 64 66 65 65 66 66 61 47 39 34 33 29
Wind_Direction_500mb
285 293 303 0 155 171 173 190 244 205 168 135 223 192 185 145 159 106 258 104 92 188 172 268 258 243 223 166 161 191 184 237 265 238 144 175 239 201 157 122 266 91 145 272
269 286 304 62 199 179 188 210 214 253 185 172 224 140 166 167 150 160 215 198 176 135 176 271 229 269 150 168 201 176 155 225 288 211 143 170 220 193 140 115 86 205 141 261
280 273 286 198 218 195 189 194 200 206 229 222 144 165 233 197 155 169 200 181 118 98 360 259 295 291 181 194 214 200 175 246 243 258 204 111 207 221 178 134 130 188 232 288
260 271 275 244 204 197 194 205 216 185 205 236 189 150 211 205 196 215 182 191 209 166 215 262 251 263 288 206 235 208 229 257 226 262 266 225 224 222 191 203 195 205 258 227
249 256 265 257 206 203 212 206 183 182 245 166 142 185 208 190 178 167 168 216 269 186 215 205 238 198 206 253 188 201 184 277 287 274 283 191 259 221 218 226 224 275 288 286
231 247 256 255 204 203 208 223 218 195 171 143 144 204 178 213 151 227 188 202 199 225 249 312 293 268 271 261 215 228 209 282 330 268 262 283 293 226 176 193 222 187 195 233
228 228 246 246 214 209 205 207 203 182 235 173 190 195 161 187 185 148 160 155 140 170 304 307 277 264 264 248 237 232 277 104 264 288 334 341 257 255 181 173 240 229 279 270
236 226 235 235 217 216 212 211 207 193 220 186 169 151 193 190 187 164 180 182 182 263 306 287 327 333 13 314 265 239 206 230 281 295 283 295 0 251 140 172 268 199 221 270
227 232 225 221 214 223 222 231 221 210 140 226 175 166 187 166 174 155 155 156 130 124 253 86 244 236 223 280 338 326 216 170 251 8 322 262 247 289 210 123 349 208 196 270
221 227 214 210 207 216 224 220 214 175 169 189 181 173 192 176 157 119 130 162 132 169 184 183 207 270 194 248 169 191 118 208 215 219 274 287 275 289 160 60 251 311 273 307
217 216 211 202 203 214 218 226 226 213 217 169 192 189 179 159 165 149 149 91 163 113 196 223 217 241 235 289 218 179 174 162 198 139 235 289 186 135 96 273 304 309 306 304
210 210 209 206 198 205 208 217 217 223 223 193 206 203 193 191 179 173 169 148 163 169 105 228 79 288 77 120 293 230 272 194 194 204 225 243 270 263 300 309 305 313 316 323
209 202 204 203 204 202 202 211 214 214 223 260 247 235 228 231 223 214 171 218 209 154 139 143 197 242 313 219 248 299 281 184 242 357 324 266 286 304 330 338 328 324 321 319
201 203 198 207 210 205 196 192 193 191 166 186 221 230 236 241 232 230 223 220 155 128 16 242 142 150 186 244 265 254 245 156 241 264 300 324 316 332 325 319 317 322 322 323
197 200 204 197 202 201 199 203 200 203 210 200 155 197 228 239 230 218 223 223 239 255 225 176 217 198 127 275 266 262 336 347 347 296 316 307 298 309 326 326 319 315 314 312
189 182 183 185 186 198 198 213 231 214 212 250 70 198 264 108 120 126 184 194 208 208 201 187 201 196 199 189 251 51 345 331 323 287 303 300 302 310 309 327 324 322 318 313
179 180 182 182 193 196 187 190 204 204 193 238 51 23 171 150 116 126 165 195 167 197 169 203 183 222 202 165 222 311 338 333 342 348 334 335 321 321 327 325 331 332 323 313
169 173 176 178 188 191 212 222 286 174 175 194 111 275 211 167 153 130 148 147 174 187 211 206 205 168 251 245 276 342 343 341 353 345 348 322 329 339 341 337 337 335 338 335
154 148 143 151 179 196 211 199 182 171 194 169 141 146 215 163 152 130 135 159 144 187 171 240 154 266 224 207 315 329 339 338 326 343 355 354 348 348 349 348 346 340 338 338
150 153 136 161 183 141 155 157 173 199 218 211 182 155 147 165 160 145 111 149 174 121 246 172 120 240 204 237 316 335 350 355 352 349 354 353 352 350 349 348 344 340 338 335
145 138 132 147 152 155 171 154 166 168 345 206 211 182 150 187 130 185 180 173 169 196 252 147 236 262 223 214 354 7 12 9 7 357 353 351 346 344 343 345 345 342 340 339
149 133 134 151 164 195 137 143 92 126 216 190 172 196 141 147 160 108 165 161 189 235 142 92 260 240 176 164 21 26 21 14 13 7 1 358 358 352 344 343 341 342 342 341
142 143 146 155 163 150 167 183 272 272 196 182 160 136 159 129 152 87 112 173 223 127 92 224 227 185 195 223 1 17 16 13 9 9 6 1 357 356 350 345 344 344 345 349
133 149 135 163 230 253 186 182 187 197 189 159 146 114 127 115 114 161 184 208 90 65 265 231 216 187 213 226 330 352 5 7 7 7 5 1 355 352 350 346 347 346 349 354
142 156 193 191 205 205 221 202 187 159 160 154 118 91 113 122 102 195 103 83 246 207 227 215 173 143 102 244 273 330 347 358 2 1 360 356 353 348 346 344 347 345 347 353
138 166 95 124 91 233 194 189 165 148 154 137 111 108 74 197 149 166 208 142 215 244 214 168 172 341 351 349 341 342 343 348 353 354 352 349 348 346 343 341 336 340 345 352
181 224 216 184 183 191 179 176 161 159 160 149 118 107 209 104 118 240 192 199 219 163 172 234 273 298 332 339 341 340 338 340 340 341 343 343 341 341 336 332 329 336 341 348
Wind_Speed_850mb
11 17 15 9 6 12 15 9 4 7 23 5 4 6 7 6 5 2 1 1 1 6 3 4 5 7 5 5 4 4 4 6 7 7 5 3 3 8 6 8 8 1 6 14
17 17 10 2 10 13 19 9 9 5 21 7 6 4 6 5 6 4 4 5 6 3 4 4 7 5 7 10 5 3 5 5 6 4 4 2 5 6 6 7 5 10 8 12
22 17 12 6 7 26 24 9 5 9 11 6 11 6 8 8 3 2 6 3 6 5 3 4 7 5 2 9 6 8 4 6 9 5 2 4 2 4 6 7 6 7 15 19
27 18 14 11 13 30 23 13 9 11 5 10 7 4 2 12 7 7 7 3 9 9 2 4 8 6 6 5 5 5 4 7 7 16 21 11 11 16 15 19 13 14 9 14
27 24 20 11 17 26 27 9 7 15 4 9 10 11 8 9 6 11 5 7 5 11 9 9 5 5 5 6 3 6 4 6 3 9 6 4 13 17 23 27 6 19 19 47
31 29 25 15 22 20 27 23 13 10 8 9 6 7 9 10 14 9 4 13 4 7 7 3 9 10 11 6 4 5 5 4 5 8 3 12 12 13 13 8 5 15 12 22
24 29 27 20 30 22 35 21 14 9 6 6 10 5 10 14 11 8 3 8 7 3 5 15 11 9 10 10 11 15 2 1 3 8 12 2 8 0 5 8 11 21 19 17
23 27 26 20 30 23 27 26 28 13 4 7 6 10 9 14 14 9 8 7 7 5 2 3 5 4 9 7 6 5 12 2 4 5 5 15 5 5 10 10 10 14 16 23
30 23 23 19 30 24 26 19 20 11 9 9 12 9 14 7 6 5 6 8 3 6 2 3 3 6 2 6 11 3 4 2 2 1 3 5 10 8 10 7 8 8 13 11
41 27 21 19 24 28 22 16 17 10 6 9 12 6 10 14 5 5 8 11 7 7 4 4 6 6 3 3 7 7 1 1 6 6 6 14 9 8 10 10 11 9 10 17
54 41 26 21 20 25 30 25 20 19 6 12 13 16 10 13 10 6 12 7 3 3 5 4 3 2 5 3 6 9 10 10 6 4 4 9 13 3 6 11 38 47 42 40
43 48 38 28 21 20 22 31 28 26 14 6 14 16 14 14 14 9 17 2 7 6 4 3 1 1 0 2 5 3 4 9 5 12 9 8 20 27 49 51 61 50 49 44
50 56 42 36 27 21 18 18 30 32 18 12 21 18 23 25 23 19 9 5 9 7 4 3 3 5 1 4 8 4 5 5 4 5 6 14 42 38 28 44 51 60 60 60
53 52 47 45 37 28 17 14 17 24 13 8 5 19 22 27 37 36 31 19 8 4 1 5 4 2 7 3 5 5 7 7 6 11 19 41 14 54 63 81 65 56 47 57
41 48 48 46 45 28 23 17 14 19 7 3 7 10 13 17 16 20 29 31 27 16 5 3 5 4 3 4 3 6 6 7 6 7 46 20 56 71 66 51 63 68 69 73
53 46 40 32 29 44 37 13 27 25 19 2 2 5 2 4 7 8 18 19 17 15 11 6 4 4 6 3 5 5 41 47 36 19 55 56 65 50 44 61 62 55 52 52
55 45 35 31 29 38 31 10 7 32 25 4 3 2 6 9 12 8 11 19 8 8 4 4 7 5 9 3 5 24 44 47 37 20 54 25 20 41 60 50 53 50 48 42
51 39 31 33 31 25 29 29 6 29 24 8 5 5 3 10 7 7 9 9 10 8 2 3 5 3 3 6 12 31 36 43 17 52 45 35 45 53 52 51 53 56 56 56
48 38 33 34 28 21 29 26 21 33 8 11 6 9 7 16 7 8 6 7 3 4 2 4 5 2 7 5 14 26 31 32 47 55 50 55 58 64 66 65 61 61 65 63
52 44 15 12 16 16 46 28 26 17 11 9 6 11 4 16 11 6 7 3 3 1 7 5 4 5 9 10 11 17 23 28 37 57 71 73 76 72 72 66 61 58 61 67
38 14 10 27 43 39 14 12 10 7 3 12 7 24 10 21 7 7 5 6 4 3 7 7 3 4 9 6 6 15 23 28 31 35 40 43 49 61 67 68 61 58 57 59
27 23 36 37 14 6 6 5 2 4 10 13 14 14 7 14 10 10 8 5 3 8 4 5 5 7 24 4 8 18 27 36 42 46 51 51 50 51 55 56 59 58 54 54
34 15 13 10 5 4 12 12 6 2 11 19 15 7 13 10 6 11 6 7 8 7 3 7 7 16 24 7 9 18 29 38 45 51 57 61 59 53 54 56 54 54 52 50
9 11 6 8 2 7 8 9 9 12 12 35 32 14 7 7 5 4 9 3 6 4 1 10 6 25 19 15 10 18 27 37 46 51 59 67 71 65 54 51 50 52 50 47
7 8 8 7 6 6 4 15 3 7 21 47 21 13 6 3 5 4 7 3 7 10 9 6 38 7 1 8 16 22 28 39 50 58 64 69 74 71 59 52 48 46 41 38
6 5 7 5 5 2 9 17 11 20 41 22 7 6 7 3 5 7 13 12 11 7 7 27 21 8 13 17 22 29 36 44 53 58 63 66 69 69 62 51 44 40 37 33
8 6 9 14 7 17 13 15 17 36 32 4 8 8 12 4 4 5 8 10 7 6 14 12 17 20 24 26 35 47 51 56 64 66 65 65 66 66 61 47 39 34 33 29
Wind_Direction_850mb
285 293 303 0 155 171 173 190 244 205 168 135 223 192 185 145 159 106 258 104 92 188 172 268 258 243 223 166 161 191 184 237 265 238 144 175 239 201 157 122 266 91 145 272
269 286 304 62 199 179 188 210 214 253 185 172 224 140 166 167 150 160 215 198 176 135 176 271 229 269 150 168 201 176 155 225 288 211 143 170 220 193 140 115 86 205 141 261
280 273 286 198 218 195 189 194 200 206 229 222 144 165 233 197 155 169 200 181 118 98 360 259 295 291 181 194 214 200 175 246 243 258 204 111 207 221 178 134 130 188 232 288
260 271 275 244 204 197 194 205 216 185 205 236 189 150 211 205 196 215 182 191 209 166 215 262 251 263 288 206 235 208 229 257 226 262 266 225 224 222 191 203 195 205 258 227
249 256 265 257 206 203 212 206 183 182 245 166 142 185 208 190 178 167 168 216 269 186 215 205 238 198 206 253 188 201 184 277 287 274 283 191 259 221 218 226 224 275 288 286
231 247 256 255 204 203 208 223 218 195 171 143 144 204 178 213 151 227 188 202 199 225 249 312 293 268 271 261 215 228 209 282 330 268 262 283 293 226 176 193 222 187 195 233
228 228 246 246 214 209 205 207 203 182 235 173 190 195 161 187 185 148 160 155 140 170 304 307 277 264 264 248 237 232 277 104 264 288 334 341 257 255 181 173 240 229 279 270
236 226 235 235 217 216 212 211 207 193 220 186 169 151 193 190 187 164 180 182 182 263 306 287 327 333 13 314 265 239 206 230 281 295 283 295 0 251 140 172 268 199 221 270
227 232 225 221 214 223 222 231 221 210 140 226 175 166 187 166 174 155 155 156 130 124 253 86 244 236 223 280 338 326 216 170 251 8 322 262 247 289 210 123 349 208 196 270
221 227 214 210 207 216 224 220 214 175 169 189 181 173 192 176 157 119 130 162 132 169 184 183 207 270 194 248 169 191 118 208 215 219 274 287 275 289 160 60 251 311 273 307
217 216 211 202 203 214 218 226 226 213 217 169 192 189 179 159 165 149 149 91 163 113 196 223 217 241 235 289 218 179 174 162 198 139 235 289 186 135 96 273 304 309 306 304
210 210 209 206 198 205 208 217 217 223 223 193 206 203 193 191 179 173 169 148 163 169 105 228 79 288 77 120 293 230 272 194 194 204 225 243 270 263 300 309 305 313 316 323
209 202 204 203 204 202 202 211 214 214 223 260 247 235 228 231 223 214 171 218 209 154 139 143 197 242 313 219 248 299 281 184 242 357 324 266 286 304 330 338 328 324 321 319
201 203 198 207 210 205 196 192 193 191 166 186 221 230 236 241 232 230 223 220 155 128 16 242 142 150 186 244 265 254 245 156 241 264 300 324 316 332 325 319 317 322 322 323
197 200 204 197 202 201 199 203 200 203 210 200 155 197 228 239 230 218 223 223 239 255 225 176 217 198 127 275 266 262 336 347 347 296 316 307 298 309 326 326 319 315 314 312
189 182 183 185 186 198 198 213 231 214 212 250 70 198 264 108 120 126 184 194 208 208 201 187 201 196 199 189 251 51 345 331 323 287 303 300 302 310 309 327 324 322 318 313
179 180 182 182 193 196 187 190 204 204 193 238 51 23 171 150 116 126 165 195 167 197 169 203 183 222 202 165 222 311 338 333 342 348 334 335 321 321 327 325 331 332 323 313
169 173 176 178 188 191 212 222 286 174 175 194 111 275 211 167 153 130 148 147 174 187 211 206 205 168 251 245 276 342 343 341 353 345 348 322 329 339 341 337 337 335 338 335
154 148 143 151 179 196 211 199 182 171 194 169 141 146 215 163 152 130 135 159 144 187 171 240 154 266 224 207 315 329 339 338 326 343 355 354 348 348 349 348 346 340 338 338
150 153 136 161 183 141 155 157 173 199 218 211 182 155 147 165 160 145 111 149 174 121 246 172 120 240 204 237 316 335 350 355 352 349 354 353 352 350 349 348 344 340 338 335
145 138 132 147 152 155 171 154 166 168 345 206 211 182 150 187 130 185 180 173 169 196 252 147 236 262 223 214 354 7 12 9 7 357 353 351 346 344 343 345 345 342 340 339
149 133 134 151 164 195 137 143 92 126 216 190 172 196 141 147 160 108 165 161 189 235 142 92 260 240 176 164 21 26 21 14 13 7 1 358 358 352 344 343 341 342 342 341
142 143 146 155 163 150 167 183 272 272 196 182 160 136 159 129 152 87 112 173 223 127 92 224 227 185 195 223 1 17 16 13 9 9 6 1 357 356 350 345 344 344 345 349
133 149 135 163 230 253 186 182 187 197 189 159 146 114 127 115 114 161 184 208 90 65 265 231 216 187 213 226 330 352 5 7 7 7 5 1 355 352 350 346 347 346 349 354
142 156 193 191 205 205 221 202 187 159 160 154 118 91 113 122 102 195 103 83 246 207 227 215 173 143 102 244 273 330 347 358 2 1 360 356 353 348 346 344 347 345 347 353
138 166 95 124 91 233 194 189 165 148 154 137 111 108 74 197 149 166 208 142 215 244 214 168 172 341 351 349 341 342 343 348 353 354 352 349 348 346 343 341 336 340 345 352
181 224 216 184 183 191 179 176 161 159 160 149 118 107 209 104 118 240 192 199 219 163 172 234 273 298 332 339 341 340 338 340 340 341 343 343 341 341 336 332 329 336 341 348